This is the latest recevied weather packets stored in our database for station/object DH9SB-6. If no packets are shown the sender has not sent any weather packets the latest 10 day(s).
| Time | Temp. | Humidity | Pressure | Rain* | Wind** | Luminosity | Snow |
|---|---|---|---|---|---|---|---|
| 1787921579 | 23.89° C | 72% | - | 0 mm | - | - | - |
| 1787920666 | 23.89° C | 74% | - | 0 mm | - | - | - |
| 1787920043 | 23.89° C | 73% | - | 0 mm | - | - | - |
| 1787919470 | 23.89° C | 73% | - | 0 mm | - | - | - |
| 1787918555 | 23.89° C | 73% | - | 0 mm | - | - | - |
| 1787917978 | 23.89° C | 74% | - | 0 mm | - | - | - |
| 1787917354 | 24.44° C | 72% | - | 0 mm | - | - | - |
| 1787916826 | 24.44° C | 75% | - | 0 mm | - | - | - |
| 1787916159 | 24.44° C | 77% | - | 0 mm | - | - | - |
| 1787914667 | 23.33° C | 92% | - | 0 mm | - | - | - |
| 1787913756 | 22.78° C | 99% | - | 0 mm | - | - | - |
| 1787913179 | 22.22° C | 99% | - | 0 mm | - | - | - |
| 1787912555 | 21.67° C | 99% | - | 0 mm | - | - | - |
| 1787912026 | 21.11° C | 99% | - | 0.51 mm | - | - | - |
| 1787911355 | 20.56° C | 99% | - | 1.02 mm | - | - | - |
| 1787910778 | 20° C | 99% | - | 2.03 mm | - | - | - |
| 1787909866 | 20° C | 99% | - | 2.29 mm | - | - | - |
| 1787909291 | 20.56° C | 99% | - | 2.79 mm | - | - | - |
| 1787908666 | 20.56° C | 99% | - | 2.29 mm | - | - | - |
| 1787908043 | 20.56° C | 99% | - | 2.03 mm | - | - | - |
| 1787907466 | 20.56° C | 99% | - | 1.27 mm | - | - | - |
| 1787906892 | 20.56° C | 99% | - | 1.02 mm | - | - | - |
| 1787906269 | 20.56° C | 99% | - | 4.32 mm | - | - | - |
| 1787905355 | 20.56° C | 99% | - | 3.81 mm | - | - | - |
| 1787904443 | 20.56° C | 99% | - | 3.56 mm | - | - | - |
* Rain latest hour (hover to see other rain measurements)
** Current wind speed in m/s (hover to see current wind gust speed)